| time (UTC) | temp C | wind direction | speed KPH | gust KPH | rain 1hr cm | rain 24hr cm | rain mn cm | humidity % | barometer mb |
| 20260504230059 | 21 | 291 | 3.2 | 14.5 | 0.00 | 0.00 | 0.00 | 50 | 1012.1 |
| 20260504225049 | 22 | 212 | 1.6 | 12.9 | 0.00 | 0.00 | 0.00 | 48 | 1012.2 |
| 20260504224034 | 22 | 238 | 1.6 | 12.9 | 0.00 | 0.00 | 0.00 | 46 | 1012.2 |
| 20260504223046 | 22 | 253 | 1.6 | 9.7 | 0.00 | 0.00 | 0.00 | 44 | 1012.2 |
| 20260504222101 | 22 | 139 | 1.6 | 12.9 | 0.00 | 0.00 | 0.00 | 49 | 1012.2 |
| 20260504215914 | 22 | 262 | 1.6 | 17.7 | 0.00 | 0.00 | 0.00 | 45 | 1012.3 |
| 20260504214936 | 22 | 175 | 1.6 | 12.9 | 0.00 | 0.00 | 0.00 | 46 | 1012.2 |
| 20260504213902 | 22 | 188 | 1.6 | 9.7 | 0.00 | 0.00 | 0.00 | 44 | 1012.2 |
| 20260504212831 | 22 | 261 | 1.6 | 9.7 | 0.00 | 0.00 | 0.00 | 47 | 1012.3 |
| 20260504211804 | 22 | 106 | 1.6 | 17.7 | 0.00 | 0.00 | 0.00 | 43 | 1012.3 |
| 20260504205642 | 22 | 196 | 1.6 | 24.1 | 0.00 | 0.00 | 0.00 | 49 | 1012.5 |
| 20260504204641 | 22 | 162 | 3.2 | 24.1 | 0.00 | 0.00 | 0.00 | 49 | 1012.5 |
| 20260504203619 | 22 | 259 | 3.2 | 12.9 | 0.00 | 0.00 | 0.00 | 46 | 1012.5 |
| 20260504202625 | 22 | 171 | 3.2 | 14.5 | 0.00 | 0.00 | 0.00 | 50 | 1012.8 |
| 20260504201619 | 22 | 222 | 1.6 | 12.9 | 0.00 | 0.00 | 0.00 | 49 | 1012.8 |
| 20260504200555 | 22 | 188 | 1.6 | 12.9 | 0.00 | 0.00 | 0.00 | 51 | 1012.9 |
| 20260504195535 | 22 | 211 | 1.6 | 12.9 | 0.00 | 0.00 | 0.00 | 50 | 1013.2 |
| 20260504194550 | 22 | 317 | 3.2 | 27.4 | 0.00 | 0.00 | 0.00 | 49 | 1013.2 |
| 20260504193532 | 22 | 163 | 3.2 | 27.4 | 0.00 | 0.00 | 0.00 | 48 | 1013.4 |
| 20260504192521 | 21 | 277 | 1.6 | 12.9 | 0.00 | 0.00 | 0.00 | 49 | 1013.5 |
| 20260504190351 | 22 | 198 | 1.6 | 17.7 | 0.00 | 0.00 | 0.00 | 53 | 1013.9 |
| 20260504185359 | 21 | 244 | 3.2 | 17.7 | 0.00 | 0.00 | 0.00 | 50 | 1014.1 |
| 20260504183227 | 21 | 219 | 3.2 | 24.1 | 0.00 | 0.00 | 0.00 | 52 | 1014.1 |
| 20260504182240 | 21 | 255 | 6.4 | 24.1 | 0.00 | 0.00 | 0.00 | 50 | 1014.3 |
| 20260504181247 | 21 | 262 | 3.2 | 17.7 | 0.00 | 0.00 | 0.00 | 51 | 1014.5 |
| 20260504180234 | 21 | 344 | 3.2 | 24.1 | 0.00 | 0.00 | 0.00 | 51 | 1014.5 |
| 20260504175203 | 21 | 215 | 3.2 | 24.1 | 0.00 | 0.00 | 0.00 | 52 | 1014.7 |
| 20260504174214 | 21 | 172 | 3.2 | 24.1 | 0.00 | 0.00 | 0.00 | 52 | 1014.8 |
| 20260504173213 | 20 | 165 | 3.2 | 20.9 | 0.00 | 0.00 | 0.00 | 51 | 1014.8 |
| 20260504172233 | 20 | 265 | 3.2 | 17.7 | 0.00 | 0.00 | 0.00 | 50 | 1014.8 |
| 20260504171224 | 20 | 215 | 1.6 | 9.7 | 0.00 | 0.00 | 0.00 | 52 | 1015.2 |
| 20260504170200 | 20 | 135 | 3.2 | 17.7 | 0.00 | 0.00 | 0.00 | 54 | 1015.2 |
| 20260504140450 | 15 | 138 | 3.2 | 14.5 | 0.00 | 0.00 | 0.00 | 58 | 1016.4 |
| 20260504130306 | 13 | 0 | 3.2 | 24.1 | 0.00 | 0.00 | 0.00 | 56 | 1016.4 |
| 20260504081944 | 11 | 0 | 0.0 | 0.0 | 0.00 | 0.00 | 0.00 | 59 | 1015.7 |
| 20260504081004 | 11 | 0 | 0.0 | 0.0 | 0.00 | 0.00 | 0.00 | 59 | 1015.7 |
| 20260504050507 | 11 | 0 | 1.6 | 12.9 | 0.00 | 0.00 | 0.00 | 59 | 1016.8 |
| 20260504045454 | 11 | 0 | 1.6 | 9.7 | 0.00 | 0.00 | 0.00 | 59 | 1016.8 |
| 20260504044433 | 11 | 0 | 1.6 | 9.7 | 0.00 | 0.00 | 0.00 | 60 | 1016.8 |
| 20260504043419 | 11 | 0 | 1.6 | 6.4 | 0.00 | 0.00 | 0.00 | 60 | 1016.9 |
| 20260504042444 | 11 | 0 | 1.6 | 9.7 | 0.00 | 0.00 | 0.00 | 59 | 1017.1 |
| 20260504040310 | 11 | 0 | 0.0 | 1.6 | 0.00 | 0.00 | 0.00 | 57 | 1017.2 |
| 20260504035252 | 12 | 0 | 0.0 | 0.0 | 0.00 | 0.00 | 0.00 | 56 | 1017.0 |
| 20260504034233 | 11 | 0 | 3.2 | 12.9 | 0.00 | 0.00 | 0.00 | 59 | 1017.2 |
| 20260504033254 | 11 | 0 | 1.6 | 12.9 | 0.00 | 0.00 | 0.00 | 58 | 1017.2 |
| 20260504032317 | 11 | 0 | 1.6 | 6.4 | 0.00 | 0.00 | 0.00 | 57 | 1017.4 |
| 20260504031257 | 12 | 0 | 1.6 | 9.7 | 0.00 | 0.00 | 0.00 | 56 | 1017.4 |
| 20260504030322 | 12 | 184 | 1.6 | 9.7 | 0.00 | 0.00 | 0.00 | 55 | 1017.4 |
| 20260504025307 | 12 | 162 | 1.6 | 0.0 | 0.00 | 0.00 | 0.00 | 57 | 1016.9 |
| 20260504024244 | 12 | 173 | 3.2 | 20.9 | 0.00 | 0.00 | 0.00 | 57 | 1017.0 |
| 20260504023258 | 12 | 263 | 3.2 | 9.7 | 0.00 | 0.00 | 0.00 | 60 | 1017.0 |
| 20260504022237 | 12 | 217 | 1.6 | 6.4 | 0.00 | 0.00 | 0.00 | 59 | 1017.0 |
| 20260504021225 | 12 | 225 | 0.0 | 6.4 | 0.00 | 0.00 | 0.00 | 59 | 1017.1 |
| 20260504015104 | 12 | 264 | 0.0 | 6.4 | 0.00 | 0.00 | 0.00 | 56 | 1017.0 |
| 20260504012940 | 12 | 221 | 0.0 | 0.0 | 0.00 | 0.00 | 0.00 | 55 | 1016.9 |
| 20260504010738 | 12 | 226 | 0.0 | 0.0 | 0.00 | 0.00 | 0.00 | 55 | 1016.8 |
| 20260504005735 | 13 | 212 | 0.0 | 1.6 | 0.00 | 0.00 | 0.00 | 55 | 1016.5 |
| 20260504004710 | 13 | 225 | 1.6 | 4.8 | 0.00 | 0.00 | 0.00 | 57 | 1016.5 |
| 20260504003715 | 13 | 169 | 0.0 | 0.0 | 0.00 | 0.00 | 0.00 | 58 | 1016.6 |
| 20260504001519 | 13 | 138 | 0.0 | 0.0 | 0.00 | 0.00 | 0.00 | 59 | 1016.6 |
| 20260504000505 | 13 | 138 | 0.0 | 0.0 | 0.00 | 0.00 | 0.00 | 57 | 1016.6 |
| 20260503234341 | 14 | 138 | 1.6 | 4.8 | 0.00 | 0.00 | 0.00 | 55 | 1016.6 |
| 20260503233336 | 15 | 0 | 1.6 | 6.4 | 0.00 | 0.00 | 0.00 | 55 | 1016.6 |
| 20260503232350 | 15 | 0 | 0.0 | 6.4 | 0.00 | 0.00 | 0.00 | 54 | 1016.8 |